| time (UTC) | temp C | wind direction | speed KPH | gust KPH | rain 1hr cm | rain 24hr cm | rain mn cm | humidity % | barometer mb |
| 20260505065224 | 12 | 248 | 1.6 | 8.0 | 0.00 | 0.00 | 0.00 | 70 | 1013.5 |
| 20260505064321 | 12 | 239 | 0.0 | 1.6 | 0.00 | 0.00 | 0.00 | 70 | 1013.5 |
| 20260505063322 | 12 | 292 | 3.2 | 6.4 | 0.00 | 0.00 | 0.00 | 69 | 1013.4 |
| 20260505062420 | 12 | 272 | 4.8 | 8.0 | 0.00 | 0.00 | 0.00 | 69 | 1013.4 |
| 20260505060422 | 12 | 295 | 6.4 | 8.0 | 0.00 | 0.00 | 0.00 | 66 | 1013.3 |
| 20260505053522 | 12 | 285 | 4.8 | 9.7 | 0.00 | 0.00 | 0.00 | 65 | 1013.5 |
| 20260505052620 | 12 | 294 | 6.4 | 12.9 | 0.00 | 0.00 | 0.00 | 65 | 1013.3 |
| 20260505051621 | 12 | 288 | 4.8 | 11.3 | 0.00 | 0.00 | 0.00 | 64 | 1013.3 |
| 20260505050622 | 13 | 267 | 3.2 | 11.3 | 0.00 | 0.00 | 0.00 | 63 | 1013.5 |
| 20260505041620 | 13 | 247 | 0.0 | 1.6 | 0.00 | 0.00 | 0.00 | 60 | 1013.5 |
| 20260505040621 | 13 | 264 | 4.8 | 11.3 | 0.00 | 0.00 | 0.00 | 60 | 1013.5 |
| 20260505035707 | 13 | 252 | 1.6 | 9.7 | 0.00 | 0.00 | 0.00 | 59 | 1013.5 |
| 20260505032806 | 13 | 242 | 6.4 | 16.1 | 0.00 | 0.00 | 0.00 | 55 | 1013.3 |
| 20260505032706 | 13 | 241 | 11.3 | 20.9 | 0.00 | 0.00 | 0.00 | 55 | 1013.3 |
| 20260505031806 | 14 | 234 | 6.4 | 12.9 | 0.00 | 0.00 | 0.00 | 56 | 1013.4 |
| 20260505025709 | 14 | 244 | 3.2 | 12.9 | 0.00 | 0.00 | 0.00 | 53 | 1013.5 |
| 20260505022805 | 14 | 247 | 0.0 | 6.4 | 0.00 | 0.00 | 0.00 | 50 | 1013.5 |
| 20260505015808 | 15 | 252 | 6.4 | 20.9 | 0.00 | 0.00 | 0.00 | 49 | 1013.4 |
| 20260505014808 | 15 | 249 | 4.8 | 16.1 | 0.00 | 0.00 | 0.00 | 49 | 1013.3 |
| 20260505013906 | 15 | 230 | 4.8 | 14.5 | 0.00 | 0.00 | 0.00 | 48 | 1013.3 |
| 20260505012006 | 15 | 256 | 3.2 | 16.1 | 0.00 | 0.00 | 0.00 | 47 | 1012.9 |
| 20260505011008 | 15 | 240 | 6.4 | 16.1 | 0.00 | 0.00 | 0.00 | 46 | 1012.7 |
| 20260505010107 | 16 | 261 | 1.6 | 9.7 | 0.00 | 0.00 | 0.00 | 46 | 1012.8 |
| 20260505004108 | 16 | 250 | 1.6 | 12.9 | 0.00 | 0.00 | 0.00 | 44 | 1012.4 |
| 20260505003205 | 16 | 237 | 12.9 | 20.9 | 0.00 | 0.00 | 0.00 | 43 | 1012.3 |
| 20260505002206 | 17 | 240 | 9.7 | 20.9 | 0.00 | 0.00 | 0.00 | 41 | 1011.8 |
| 20260505002108 | 17 | 234 | 1.6 | 14.5 | 0.00 | 0.00 | 0.00 | 42 | 1011.8 |
| 20260505001106 | 17 | 230 | 9.7 | 22.5 | 0.00 | 0.00 | 0.00 | 42 | 1011.4 |
| 20260505000122 | 17 | 222 | 6.4 | 17.7 | 0.00 | 0.00 | 0.00 | 40 | 1011.2 |
| 20260504235207 | 17 | 258 | 6.4 | 14.5 | 0.00 | 0.00 | 0.00 | 41 | 1011.0 |
| 20260504234205 | 18 | 249 | 12.9 | 20.9 | 0.00 | 0.00 | 0.00 | 40 | 1010.9 |
| 20260504231208 | 18 | 269 | 9.7 | 19.3 | 0.00 | 0.00 | 0.00 | 37 | 1010.3 |
| 20260504230306 | 18 | 237 | 4.8 | 19.3 | 0.00 | 0.00 | 0.00 | 37 | 1010.1 |
| 20260504223308 | 20 | 279 | 19.3 | 27.4 | 0.00 | 0.00 | 0.00 | 34 | 1009.6 |
| 20260504221408 | 21 | 224 | 4.8 | 19.3 | 0.00 | 0.00 | 0.00 | 29 | 1009.5 |
| 20260504220506 | 21 | 280 | 9.7 | 19.3 | 0.00 | 0.00 | 0.00 | 29 | 1009.3 |
| 20260504215605 | 21 | 269 | 11.3 | 24.1 | 0.00 | 0.00 | 0.00 | 27 | 1009.3 |
| 20260504214607 | 21 | 280 | 12.9 | 22.5 | 0.00 | 0.00 | 0.00 | 27 | 1009.3 |
| 20260504213705 | 21 | 272 | 11.3 | 19.3 | 0.00 | 0.00 | 0.00 | 28 | 1009.2 |
| 20260504212709 | 21 | 282 | 6.4 | 17.7 | 0.00 | 0.00 | 0.00 | 28 | 1009.3 |
| 20260504211707 | 22 | 248 | 6.4 | 22.5 | 0.00 | 0.00 | 0.00 | 27 | 1009.3 |
| 20260504210708 | 22 | 289 | 14.5 | 22.5 | 0.00 | 0.00 | 0.00 | 26 | 1009.3 |
| 20260504205707 | 22 | 259 | 3.2 | 11.3 | 0.00 | 0.00 | 0.00 | 27 | 1009.3 |
| 20260504204706 | 21 | 278 | 9.7 | 20.9 | 0.00 | 0.00 | 0.00 | 27 | 1009.2 |
| 20260504203706 | 21 | 284 | 14.5 | 32.2 | 0.00 | 0.00 | 0.00 | 26 | 1009.3 |
| 20260504202726 | 22 | 285 | 12.9 | 20.9 | 0.00 | 0.00 | 0.00 | 26 | 1009.2 |
| 20260504201728 | 21 | 293 | 11.3 | 16.1 | 0.00 | 0.00 | 0.00 | 25 | 1009.2 |
| 20260504200728 | 22 | 286 | 14.5 | 24.1 | 0.00 | 0.00 | 0.00 | 25 | 1009.5 |
| 20260504200626 | 22 | 292 | 17.7 | 40.2 | 0.00 | 0.00 | 0.00 | 25 | 1009.3 |
| 20260504195627 | 21 | 281 | 12.9 | 20.9 | 0.00 | 0.00 | 0.00 | 24 | 1009.6 |
| 20260504194726 | 21 | 282 | 17.7 | 33.8 | 0.00 | 0.00 | 0.00 | 24 | 1009.4 |
| 20260504193729 | 21 | 283 | 12.9 | 19.3 | 0.00 | 0.00 | 0.00 | 25 | 1009.6 |
| 20260504193626 | 21 | 279 | 14.5 | 24.1 | 0.00 | 0.00 | 0.00 | 25 | 1009.7 |
| 20260504192626 | 21 | 291 | 20.9 | 30.6 | 0.00 | 0.00 | 0.00 | 24 | 1008.8 |
| 20260504191627 | 21 | 299 | 8.0 | 19.3 | 0.00 | 0.00 | 0.00 | 25 | 1009.5 |
| 20260504190628 | 21 | 264 | 11.3 | 22.5 | 0.00 | 0.00 | 0.00 | 25 | 1009.4 |
| 20260504185628 | 21 | 282 | 8.0 | 14.5 | 0.00 | 0.00 | 0.00 | 24 | 1009.6 |
| 20260504184625 | 21 | 261 | 12.9 | 22.5 | 0.00 | 0.00 | 0.00 | 26 | 1009.4 |
| 20260504183627 | 21 | 267 | 11.3 | 20.9 | 0.00 | 0.00 | 0.00 | 25 | 1009.8 |
| 20260504182628 | 21 | 296 | 19.3 | 27.4 | 0.00 | 0.00 | 0.00 | 26 | 1009.9 |
| 20260504181627 | 20 | 254 | 16.1 | 25.7 | 0.00 | 0.00 | 0.00 | 26 | 1010.2 |
| 20260504180626 | 20 | 291 | 22.5 | 33.8 | 0.00 | 0.00 | 0.00 | 27 | 1009.8 |
| 20260504175628 | 20 | 287 | 11.3 | 20.9 | 0.00 | 0.00 | 0.00 | 27 | 1010.2 |
| 20260504174626 | 20 | 287 | 12.9 | 20.9 | 0.00 | 0.00 | 0.00 | 27 | 1010.2 |
| 20260504171626 | 20 | 294 | 20.9 | 30.6 | 0.00 | 0.00 | 0.00 | 27 | 1010.3 |
| 20260504170725 | 20 | 259 | 11.3 | 19.3 | 0.00 | 0.00 | 0.00 | 28 | 1010.3 |
| 20260504150825 | 18 | 261 | 11.3 | 19.3 | 0.00 | 0.00 | 0.00 | 32 | 1011.7 |
| 20260504141026 | 17 | 296 | 9.7 | 14.5 | 0.00 | 0.00 | 0.00 | 35 | 1012.4 |
| 20260504140927 | 17 | 296 | 9.7 | 16.1 | 0.00 | 0.00 | 0.00 | 35 | 1012.4 |
| 20260504130125 | 14 | 284 | 11.3 | 17.7 | 0.00 | 0.00 | 0.00 | 40 | 1013.2 |
| 20260504120226 | 12 | 282 | 9.7 | 20.9 | 0.00 | 0.00 | 0.00 | 43 | 1013.5 |
| 20260504100426 | 8 | 293 | 3.2 | 11.3 | 0.00 | 0.00 | 0.00 | 47 | 1013.6 |
| 20260504081625 | 8 | 289 | 1.6 | 4.8 | 0.00 | 0.00 | 0.00 | 49 | 1013.4 |